Date,TemperatureHighF,TemperatureAvgF,TemperatureLowF,DewpointHighF,DewpointAvgF,DewpointLowF,HumidityHigh,HumidityAvg,HumidityLow,PressureMaxIn,PressureMinIn,WindSpeedMaxMPH,WindSpeedAvgMPH,GustSpeedMaxMPH,PrecipitationSumIn
2013-8-1,95.7,86.6,80.6,77.2,75.2,72.6,81,69,53,29.84,29.73,11,3,17,0.00
2013-8-2,94.8,83.9,75.9,77.7,74.6,72.0,94,75,50,29.85,29.70,9,2,18,0.37
2013-8-3,92.7,80.2,72.5,79.9,75.5,69.2,95,86,63,29.93,29.81,17,1,30,0.54
2013-8-4,98.1,85.2,76.8,80.7,76.3,73.9,93,76,53,29.91,29.77,11,1,18,0.01
2013-8-5,95.5,84.6,78.6,81.8,76.7,72.0,89,78,59,29.83,29.73,11,2,17,0.07
2013-8-6,97.3,85.5,76.6,79.7,76.6,73.0,93,76,56,29.78,29.67,8,1,14,0.04
2013-8-7,95.4,85.9,77.7,79.6,76.3,73.4,92,74,54,29.77,29.69,10,2,16,0.00
2013-8-8,96.8,88.0,82.2,80.3,76.3,72.1,84,69,52,29.81,29.71,9,3,17,0.00
2013-8-9,92.7,84.9,80.4,79.4,75.3,70.7,83,73,60,29.85,29.73,8,2,18,0.17
2013-8-10,96.4,87.6,81.1,79.5,76.8,74.9,85,71,53,29.91,29.82,9,3,15,0.00
2013-8-11,96.3,88.0,81.9,80.4,77.3,73.4,84,71,56,29.92,29.85,10,3,16,0.00
2013-8-12,95.4,86.1,77.5,79.2,75.8,72.0,85,72,57,29.90,29.80,9,3,16,0.01
2013-8-13,97.0,88.3,80.6,79.2,76.3,73.0,85,69,48,29.83,29.74,7,2,17,0.00
2013-8-14,97.0,87.8,79.5,78.0,75.7,73.7,85,68,49,29.82,29.71,8,2,14,0.00
2013-8-15,91.4,83.0,75.9,80.3,76.9,72.5,93,82,68,29.85,29.75,8,2,16,0.17
2013-8-16,97.2,87.9,79.0,81.2,78.4,75.9,93,74,53,29.84,29.76,8,2,13,0.00
2013-8-17,95.5,88.6,81.9,81.0,78.7,74.8,86,73,59,29.87,29.78,8,2,17,0.00
2013-8-18,96.3,88.0,82.4,80.2,77.9,74.5,84,72,59,29.86,29.78,10,3,17,0.00
2013-8-19,97.0,87.9,81.1,81.0,77.8,75.2,85,73,55,29.86,29.75,8,3,17,0.02
2013-8-20,96.3,87.4,80.8,79.6,76.8,72.6,87,71,55,29.85,29.77,10,3,19,0.04
2013-8-21,95.0,85.6,79.3,83.7,78.3,75.2,91,79,60,29.86,29.78,12,3,21,0.15
2013-8-22,96.3,86.4,74.1,82.0,78.0,71.4,96,77,57,29.88,29.74,11,2,17,0.61
2013-8-23,96.8,86.9,80.2,81.6,77.2,74.2,87,73,54,29.80,29.72,8,2,15,0.00
2013-8-24,97.0,86.5,74.8,79.5,76.5,70.7,93,73,50,29.90,29.75,8,2,14,0.53
2013-8-25,91.2,82.8,77.7,79.1,76.2,73.4,93,81,61,29.94,29.81,8,2,13,0.08
2013-8-26,93.2,84.1,78.3,80.2,75.4,70.7,88,76,56,29.91,29.80,9,2,15,0.08
2013-8-27,91.8,82.1,75.6,77.9,73.8,70.6,91,77,56,29.83,29.75,10,2,14,0.00
2013-8-28,94.6,83.5,76.1,79.4,75.3,72.2,93,77,55,29.83,29.73,8,1,14,0.27
2013-8-29,96.3,85.7,75.6,79.7,76.2,72.3,92,74,53,29.81,29.71,8,2,14,0.00
2013-8-30,96.8,86.5,76.3,78.5,75.0,71.1,91,70,49,29.79,29.68,8,2,16,0.00
2013-8-31,97.3,82.4,76.3,80.9,75.7,73.2,92,81,54,29.77,29.70,8,2,12,0.20